Flag for U.S.A. Weather past 2 weeks in Charleston, South Carolina, U.S.A.

Now
54 °F

Clear.


Feels Like: 53 °F
Forecast: 51 / 75 °F
Wind: 6 mph from West

Location: Charleston Air Force Base Reporting Station

Current Time: Mar 31, 2015 at 3:32:43 AM

Latest Report: Mar 31, 2015 at 2:56 AM


Visibility: 10 mi

Pressure: 30.06 "Hg

Humidity: 90%

Dew point: 51 °F

Location of CharlestonLocation

Historic Weather in Charleston — Graph

°F

Charleston temperature yesterday

Maximum temperature yesterday: 69 °F (at 2:56 PM)
Minimum temperature yesterday: 40 °F (at 3:56 AM)
Average temperature yesterday: 56 °F

Past Weeks' High & Low Weather Summary

 TemperatureHumidityPressure
High85 °F (Mar 17, 3:56 PM)100% (Mar 16, 4:56 AM)30.46 "Hg (Mar 16, 4:56 AM)
Low35 °F (Mar 29, 6:56 AM)15% (Mar 29, 3:56 PM)29.63 "Hg (Mar 27, 2:56 PM)
Average60 °F72%30.06 "Hg
* Reported Mar 16 1:56 AM — Mar 31 1:56 AM, Charleston, Weather by CustomWeather, © 2015

Note: Actual official high and low records may vary slightly from our data, if they occured in-between our weather recording intervals... More about our weather records

Advertising

Charleston weather history for previous 24 hours

 ConditionsComfort  
Time TempWeatherWind HumidityBarometerVisibility
1:56 AM
Tue, Mar 31
56 °FClear.6 mph87%30.07 "Hg10 mi
12:56 AM56 °FClear.6 mph87%30.07 "Hg10 mi
11:56 PM
Mon, Mar 30
56 °FClear.6 mph87%30.08 "Hg10 mi
10:56 PM59 °FClear.7 mph78%30.08 "Hg10 mi
9:56 PM60 °FPassing clouds.7 mph75%30.07 "Hg10 mi
8:56 PM60 °FPassing clouds.7 mph75%30.05 "Hg10 mi
7:56 PM63 °FPassing clouds.7 mph65%30.04 "Hg10 mi
6:56 PM67 °FPassing clouds.9 mph55%30.03 "Hg10 mi
5:56 PM69 °FScattered clouds.15 mph53%30.03 "Hg10 mi
4:56 PM68 °FBroken clouds.16 mph53%30.03 "Hg10 mi
3:56 PM68 °FBroken clouds.18 mph53%30.05 "Hg10 mi
2:56 PM69 °FScattered clouds.16 mph49%30.09 "Hg10 mi
1:56 PM64 °FCloudy.12 mph52%30.10 "Hg10 mi
12:56 PM61 °FBroken clouds.14 mph50%30.13 "Hg10 mi
11:56 AM60 °FCloudy.13 mph47%30.18 "Hg10 mi
10:56 AM59 °FMostly cloudy.8 mph48%30.19 "Hg10 mi
9:56 AM58 °FPartly sunny.12 mph54%30.19 "Hg10 mi
8:56 AM54 °FPartly sunny.7 mph69%30.21 "Hg10 mi
7:56 AM49 °FPassing clouds.6 mph77%30.22 "Hg10 mi
6:56 AM42 °FPassing clouds.7 mph82%30.21 "Hg10 mi
5:56 AM40 °FPassing clouds.6 mph86%30.21 "Hg10 mi
4:56 AM41 °FClear.5 mph80%30.22 "Hg10 mi
3:56 AM40 °FClear.6 mph80%30.23 "Hg10 mi
Weather by CustomWeather, © 2015

See weather overviewHow to use our weather pages